Location: Napa Junction
(38.1874°N, 122.2508°W)
Time: 15:41:59
(UTC+00:00)

SL-16 R/B - Pass Details

Date: 08 September 2024
Orbit: 985 x 1006 km, 99.7° (Epoch: 07 October)

Event Time Altitude Azimuth Distance (km) Brightness Sun altitude
Exits shadow 12:28:56 20° 272° (W) 2,147 3.7 -15.4°
Drops below altitude 10° 12:32:52 10° 312° (NW) 2,770 4.6 -14.7°
Sets 12:36:09 0° 329° (NNW) 3,728 5.4 -14.0°
